TimeCDT,TemperatureF,Dew PointF,Humidity,Sea Level PressureIn,VisibilityMPH,Wind Direction,Wind SpeedMPH,Gust SpeedMPH,PrecipitationIn,Events,Conditions,WindDirDegrees,DateUTC
12:54 AM,78.1,69.1,74,29.88,10.0,South,10.4,-,N/A,,Overcast,190,2013-09-20 05:54:00
1:54 AM,73.9,64.9,73,29.89,10.0,West,9.2,18.4,0.00,Rain,Light Rain,280,2013-09-20 06:54:00
2:54 AM,72.0,64.9,78,29.86,10.0,South,5.8,-,0.00,,Mostly Cloudy,180,2013-09-20 07:54:00
3:54 AM,71.1,66.0,84,29.86,10.0,South,12.7,-,0.01,Rain,Light Rain,190,2013-09-20 08:54:00
4:54 AM,69.1,64.9,87,29.88,8.0,WSW,8.1,-,0.05,Rain,Light Rain,250,2013-09-20 09:54:00
5:03 AM,69.8,66.2,88,29.91,10.0,WSW,8.1,-,0.01,Rain-Thunderstorm,Light Rain,240,2013-09-20 10:03:00
5:18 AM,69.8,64.4,83,29.90,10.0,SW,9.2,-,0.01,Rain,Light Rain,230,2013-09-20 10:18:00
5:33 AM,69.8,64.4,83,29.89,8.0,SW,6.9,-,0.03,Rain-Thunderstorm,Rain,220,2013-09-20 10:33:00
5:46 AM,69.8,66.2,88,29.90,9.0,SSW,8.1,-,0.04,Rain,Light Rain,210,2013-09-20 10:46:00
5:54 AM,69.1,64.9,87,29.88,10.0,SW,6.9,-,0.05,Rain,Light Rain,230,2013-09-20 10:54:00
6:29 AM,68.0,64.4,88,29.91,10.0,SW,6.9,-,0.04,Rain,Light Rain,230,2013-09-20 11:29:00
6:54 AM,68.0,64.9,90,29.88,10.0,WSW,6.9,-,0.04,Rain,Light Rain,250,2013-09-20 11:54:00
7:54 AM,69.1,64.9,87,29.89,10.0,SW,6.9,-,0.00,,Mostly Cloudy,220,2013-09-20 12:54:00
8:47 AM,69.8,64.4,83,29.91,10.0,WSW,3.5,-,0.00,,Scattered Clouds,250,2013-09-20 13:47:00
8:54 AM,70.0,66.0,87,29.89,10.0,WSW,4.6,-,0.00,,Mostly Cloudy,250,2013-09-20 13:54:00
9:05 AM,69.8,64.4,83,29.91,10.0,WSW,6.9,-,N/A,,Scattered Clouds,240,2013-09-20 14:05:00
9:19 AM,69.8,66.2,88,29.91,10.0,WSW,9.2,-,N/A,,Mostly Cloudy,250,2013-09-20 14:19:00
9:52 AM,71.6,66.2,83,29.91,10.0,WSW,9.2,-,N/A,,Scattered Clouds,250,2013-09-20 14:52:00
9:54 AM,71.1,64.9,81,29.89,10.0,WSW,8.1,-,N/A,,Scattered Clouds,250,2013-09-20 14:54:00
10:18 AM,73.4,66.2,78,29.91,10.0,WSW,10.4,-,N/A,,Mostly Cloudy,250,2013-09-20 15:18:00
10:28 AM,71.6,66.2,83,29.91,10.0,WSW,8.1,-,N/A,,Overcast,240,2013-09-20 15:28:00
10:54 AM,73.0,66.0,79,29.90,10.0,West,6.9,-,N/A,,Overcast,260,2013-09-20 15:54:00
11:28 AM,71.6,66.2,83,29.90,10.0,WSW,11.5,-,N/A,,Overcast,240,2013-09-20 16:28:00
11:54 AM,72.0,66.0,81,29.88,10.0,SW,9.2,-,0.00,,Overcast,230,2013-09-20 16:54:00
12:06 PM,71.6,66.2,83,29.90,2.5,WSW,9.2,-,0.02,Rain,Rain,240,2013-09-20 17:06:00
12:31 PM,69.8,66.2,88,29.90,1.5,West,9.2,-,0.08,Rain,Rain,260,2013-09-20 17:31:00
12:44 PM,69.8,66.2,88,29.90,2.5,WSW,10.4,-,0.10,Rain,Light Rain,250,2013-09-20 17:44:00
12:52 PM,69.8,68.0,94,29.90,6.0,West,6.9,-,0.10,Rain,Light Rain,260,2013-09-20 17:52:00
12:54 PM,70.0,68.0,93,29.88,7.0,West,6.9,-,0.10,,Overcast,260,2013-09-20 17:54:00
1:13 PM,69.8,66.2,88,29.89,2.5,West,6.9,-,0.00,Rain,Light Rain,260,2013-09-20 18:13:00
1:21 PM,71.6,68.0,88,29.89,8.0,West,5.8,-,0.00,Rain,Light Rain,270,2013-09-20 18:21:00
1:40 PM,71.6,68.0,88,29.87,10.0,SW,5.8,-,0.00,,Overcast,230,2013-09-20 18:40:00
1:47 PM,71.6,68.0,88,29.88,10.0,West,6.9,-,0.00,,Mostly Cloudy,260,2013-09-20 18:47:00
1:54 PM,71.1,66.9,87,29.86,10.0,WSW,8.1,-,0.00,,Mostly Cloudy,250,2013-09-20 18:54:00
2:02 PM,71.6,68.0,88,29.87,10.0,WSW,5.8,-,N/A,,Overcast,250,2013-09-20 19:02:00
2:29 PM,71.6,66.2,83,29.87,10.0,WSW,4.6,-,N/A,,Overcast,250,2013-09-20 19:29:00
2:40 PM,71.6,66.2,83,29.87,2.0,WNW,11.5,-,0.05,Rain,Light Rain,290,2013-09-20 19:40:00
2:42 PM,69.8,66.2,88,29.87,1.2,NW,9.2,-,0.09,Rain,Heavy Rain,310,2013-09-20 19:42:00
2:47 PM,69.8,66.2,88,29.87,0.8,WNW,5.8,-,0.12,Rain,Heavy Rain,300,2013-09-20 19:47:00
2:52 PM,69.8,64.4,83,29.86,5.0,West,5.8,-,0.13,Rain,Light Rain,280,2013-09-20 19:52:00
2:54 PM,70.0,64.9,84,29.85,5.0,WNW,4.6,-,0.13,Rain,Light Rain,290,2013-09-20 19:54:00
3:54 PM,71.1,66.9,87,29.85,10.0,West,4.6,-,0.00,,Overcast,260,2013-09-20 20:54:00
4:02 PM,71.6,66.2,83,29.85,10.0,West,3.5,-,N/A,,Overcast,260,2013-09-20 21:02:00
4:42 PM,71.6,64.4,78,29.86,10.0,WNW,9.2,-,0.00,,Overcast,300,2013-09-20 21:42:00
4:54 PM,71.1,64.0,78,29.84,10.0,WNW,6.9,-,0.00,,Mostly Cloudy,290,2013-09-20 21:54:00
5:54 PM,69.1,60.1,73,29.84,10.0,WNW,9.2,-,N/A,,Scattered Clouds,290,2013-09-20 22:54:00
6:54 PM,66.9,57.0,70,29.86,10.0,WNW,9.2,-,N/A,,Clear,300,2013-09-20 23:54:00
7:54 PM,64.9,54.0,68,29.86,10.0,NW,5.8,-,N/A,,Clear,310,2013-09-21 00:54:00
8:54 PM,64.0,52.0,65,29.88,10.0,NW,9.2,-,N/A,,Clear,320,2013-09-21 01:54:00
9:54 PM,63.0,51.1,65,29.89,10.0,NW,11.5,-,N/A,,Clear,320,2013-09-21 02:54:00
10:54 PM,61.0,50.0,67,29.89,10.0,NW,12.7,-,N/A,,Clear,320,2013-09-21 03:54:00
11:54 PM,60.1,50.0,69,29.89,10.0,NW,10.4,-,N/A,,Clear,310,2013-09-21 04:54:00